[TLELIST]

  • This mailing list is a public mailing list - anyone may join or leave, at any time.
  • This mailing list is announce-only.

International Space Station (ISS) / Hubble Space Telescope (HST) / Chandra X-Ray Observatory Orbital Data via EMAIL

Privacy Policy:

Private list

Archived Messages

 

[TLELIST] Current TLEs

September 14th 2026 PDT

0 HST 1 20580U 90037B 26257.17378261 .00005382 00000-0 16369-3 0 9997 2 20580 28.4732 191.9585 0001881 59.3129 300.7652 15.31641591802221 0 ISS (ZARYA) 1 25544U 98067A 26257.14321681 .00004666 00000-0 92466-4 0 9991 2 25544 51.6309 219.8284 0004931 139.3822 220.7535 15.49107075585545 0 CXO 1 25867U 99040B 26259.29000158 .00000789 00000-0 00000-0 0 9993 2 25867 57.4112 114.2820 7693036 309.4077 0.3912 0.37803042 17664 ...Continue Reading

[TLELIST] Current TLEs

September 13th 2026 PDT

0 HST 1 20580U 90037B 26255.93577969 .00005307 00000-0 16138-3 0 9996 2 20580 28.4731 200.4311 0001822 46.6900 313.3848 15.31629360802030 0 ISS (ZARYA) 1 25544U 98067A 26256.17555434 .00004898 00000-0 96695-4 0 9993 2 25544 51.6307 224.6171 0004917 134.6730 225.4659 15.49096932585393 0 CXO 1 25867U 99040B 26259.28972687 .00000789 00000-0 00000-0 0 9997 2 25867 57.4112 114.2820 7693037 309.4077 0.3538 0.37803005 17668 ...Continue Reading

[TLELIST] Current TLEs

September 12th 2026 PDT

0 HST 1 20580U 90037B 26255.21903661 .00004906 00000-0 14867-3 0 9990 2 20580 28.4730 205.3366 0001795 39.5104 320.5623 15.31621652801923 0 ISS (ZARYA) 1 25544U 98067A 26255.20788499 .00004954 00000-0 97729-4 0 9997 2 25544 51.6305 229.4056 0004953 131.3152 228.8264 15.49086570585248 0 CXO 1 25867U 99040B 26256.64753562 .00000750 00000-0 00000-0 0 9991 2 25867 57.3946 114.3238 7696466 309.4554 0.6118 0.37808225 17661 ...Continue Reading

[TLELIST] Current TLEs

September 11th 2026 PDT

0 HST 1 20580U 90037B 26254.24165439 .00004921 00000-0 14921-3 0 9993 2 20580 28.4728 212.0253 0001743 28.7294 331.3398 15.31612289801771 0 ISS (ZARYA) 1 25544U 98067A 26254.17569693 .00004925 00000-0 97240-4 0 9991 2 25544 51.6305 234.5133 0004993 127.7196 232.4246 15.49076359585089 0 CXO 1 25867U 99040B 26256.64753562 .00000750 00000-0 00000-0 0 9991 2 25867 57.3946 114.3238 7696466 309.4554 0.6118 0.37808225 17661 ...Continue Reading

[TLELIST] Current TLEs

September 10th 2026 PDT

0 HST 1 20580U 90037B 26253.19910667 .00005272 00000-0 16041-3 0 9992 2 20580 28.4724 219.1604 0001676 17.2974 342.7679 15.31602617801613 0 ISS (ZARYA) 1 25544U 98067A 26253.14350206 .00005262 00000-0 10337-3 0 9991 2 25544 51.6301 239.6212 0004991 124.3002 235.8459 15.49065630584921 0 CXO 1 25867U 99040B 26254.00228986 .00000794 00000-0 00000-0 0 9994 2 25867 57.3829 114.3655 7702085 309.5050 0.4774 0.37809369 17645 ...Continue Reading

[TLELIST] Current TLEs

September 9th 2026 PDT

0 HST 1 20580U 90037B 26252.22171230 .00005349 00000-0 16290-3 0 9991 2 20580 28.4723 225.8501 0001635 6.0954 353.9662 15.31592360801463 0 ISS (ZARYA) 1 25544U 98067A 26252.17581408 .00008560 00000-0 16303-3 0 9996 2 25544 51.6292 244.4112 0004991 115.2679 244.8828 15.49057327584779 0 CXO 1 25867U 99040B 26254.00228986 .00000794 00000-0 00000-0 0 9994 2 25867 57.3829 114.3655 7702085 309.5050 0.4774 0.37809369 17645 ...Continue Reading

[TLELIST] Current TLEs

September 8th 2026 PDT

0 HST 1 20580U 90037B 26251.24431091 .00005544 00000-0 16916-3 0 9998 2 20580 28.4722 232.5395 0001589 354.5057 5.5522 15.31583322801318 0 ISS (ZARYA) 1 25544U 98067A 26250.69200809 .00005759 00000-0 11253-3 0 9990 2 25544 51.6306 251.7517 0004980 116.5212 243.6288 15.49021131584546 0 CXO 1 25867U 99040B 26254.00228986 .00000794 00000-0 00000-0 0 9994 2 25867 57.3829 114.3655 7702085 309.5050 0.4774 0.37809369 17645 ...Continue Reading

[TLELIST] Current TLEs

September 7th 2026 PDT

0 HST 1 20580U 90037B 26250.07142080 .00004350 00000-0 13122-3 0 9995 2 20580 28.4721 240.5667 0001538 339.7821 20.2714 15.31570789801136 0 ISS (ZARYA) 1 25544U 98067A 26250.17589239 .00004561 00000-0 90859-4 0 9990 2 25544 51.6308 254.3052 0005021 115.4261 244.7248 15.49013499584467 0 CXO 1 25867U 99040B 26251.35723569 .00000880 00000-0 00000-0 0 9992 2 25867 57.3547 114.4216 7709509 309.5395 0.4093 0.37806856 17637 ...Continue Reading

[TLELIST] Current TLEs

September 6th 2026 PDT

0 HST 1 20580U 90037B 26249.28948943 .00003784 00000-0 11325-3 0 9991 2 20580 28.4722 245.9180 0001514 329.2257 30.8250 15.31563714801016 0 ISS (ZARYA) 1 25544U 98067A 26249.14365581 .00003658 00000-0 74533-4 0 9994 2 25544 51.6309 259.4125 0005023 112.3189 247.8332 15.49001728584305 0 CXO 1 25867U 99040B 26251.35723569 .00000880 00000-0 00000-0 0 9992 2 25867 57.3547 114.4216 7709509 309.5395 0.4093 0.37806856 17637 ...Continue Reading

[TLELIST] Current TLEs

September 5th 2026 PDT

0 HST 1 20580U 90037B 26248.24690944 .00003688 00000-0 11021-3 0 9997 2 20580 28.4723 253.0530 0001489 315.5185 44.5292 15.31556044800852 0 ISS (ZARYA) 1 25544U 98067A 26248.17592762 .00003558 00000-0 72743-4 0 9999 2 25544 51.6310 264.2007 0005041 108.5564 251.5973 15.48992921584153 0 CXO 1 25867U 99040B 26251.35712756 .00000880 00000-0 00000-0 0 9998 2 25867 57.3547 114.4216 7709507 309.5395 0.3948 0.37806867 17635 ...Continue Reading